Location: Unspecified
(58.9933°N, 5.6375°E)
Time: 21:15:56
(UTC+01:00)

Resurs 1-4 Rocket - Visible Passes

Search period start: 18 February 2018 00:00
Search period end: 28 February 2018 00:00
Orbit: 800 x 813 km, 98.5° (Epoch: 17 February)

Date Brightness Start Highest point End Pass type
(mag) Time Alt. Az. Time Alt. Az. Time Alt. Az.
18 Feb 4.2 02:21:23 10° NNE 02:23:33 23° NE 02:23:33 23° NE visible
18 Feb 3.2 04:01:17 10° NNE 04:04:38 35° N 04:04:38 35° N visible
18 Feb 3.8 05:42:01 10° N 05:45:15 17° NW 05:45:43 16° NW visible
19 Feb 4.5 01:56:59 10° NNE 01:58:46 18° NE 01:58:46 18° NE visible
19 Feb 3.3 03:36:37 10° NNE 03:39:52 38° N 03:39:52 38° N visible
19 Feb 3.6 05:17:08 10° N 05:20:57 21° NW 05:20:57 21° NW visible
20 Feb 4.7 01:32:46 10° NE 01:34:00 14° NE 01:34:00 14° NE visible
20 Feb 3.4 03:11:59 10° NNE 03:15:05 36° NNE 03:15:05 36° NNE visible
20 Feb 3.3 04:52:18 10° N 04:56:10 27° NW 04:56:10 27° NW visible
20 Feb 4.2 06:34:08 10° NNW 06:35:01 10° NNW 06:35:55 10° NW visible
21 Feb 4.9 01:08:55 10° NE 01:09:13 11° NE 01:09:13 11° NE visible
21 Feb 3.7 02:47:24 10° NNE 02:50:19 32° NE 02:50:19 32° NE visible
21 Feb 3.1 04:27:33 10° N 04:31:24 33° NNW 04:31:24 33° NNW visible
21 Feb 4.0 06:08:36 10° N 06:10:55 13° NNW 06:12:29 12° NW visible
22 Feb 4.0 02:22:54 10° NNE 02:25:32 26° NE 02:25:32 26° NE visible
22 Feb 3.0 04:02:49 10° NNE 04:06:37 40° NNW 04:06:37 40° NNW visible
22 Feb 3.8 05:43:35 10° N 05:46:45 16° NW 05:47:43 16° NW visible
23 Feb 4.3 01:58:30 10° NNE 02:00:46 21° NE 02:00:46 21° NE visible
23 Feb 2.9 03:38:08 10° NNE 03:41:51 44° N 03:41:51 44° N visible
23 Feb 3.6 05:18:41 10° N 05:22:32 21° NW 05:22:56 21° NW visible
24 Feb 4.5 01:34:16 10° NE 01:35:59 16° NE 01:35:59 16° NE visible
24 Feb 3.1 03:13:31 10° NNE 03:17:04 43° NNE 03:17:04 43° NNE visible
24 Feb 3.3 04:53:51 10° N 04:58:10 27° NW 04:58:10 27° NW visible
24 Feb 4.2 06:35:49 10° NNW 06:36:31 10° NNW 06:37:12 10° NW visible
25 Feb 4.8 01:10:23 10° NE 01:11:13 12° NE 01:11:13 12° NE visible
25 Feb 3.4 02:48:56 10° NNE 02:52:19 38° NE 02:52:19 38° NE visible
25 Feb 3.0 04:29:06 10° N 04:33:24 34° NW 04:33:24 34° NW visible
25 Feb 4.1 06:10:11 10° N 06:12:25 13° NNW 06:14:29 10° WNW visible
26 Feb 3.7 02:24:25 10° NNE 02:27:32 31° NE 02:27:32 31° NE visible
26 Feb 2.8 04:04:21 10° N 04:08:37 44° NNW 04:08:37 44° NNW visible
26 Feb 3.8 05:45:07 10° N 05:48:15 16° NW 05:49:43 14° WNW visible
27 Feb 4.1 02:00:01 10° NNE 02:02:46 24° ENE 02:02:46 24° ENE visible
27 Feb 2.6 03:39:41 10° NNE 03:43:52 52° NNW 03:43:52 52° NNW visible
27 Feb 3.6 05:20:13 10° N 05:24:02 20° NW 05:24:57 19° WNW visible
